• Processing (Info)

  • MPEC 2011-C94 : 2011 CF66

    The following Minor Planet Electronic Circular may be linked-to from your own Web pages, but must not otherwise be redistributed electronically.

    A form allowing access to any MPEC is at the bottom of this page.


    Read MPEC 2011-C93 Read MPEC 2011-C95


    M.P.E.C. 2011-C94                                Issued 2011 Feb. 14, 13:20 UT
    
         The Minor Planet Electronic Circulars contain information on unusual
             minor planets and routine data on comets.  They are published
       on behalf of Commission 20 of the International Astronomical Union by the
              Minor Planet Center, Smithsonian Astrophysical Observatory,
                              Cambridge, MA 02138, U.S.A.
    
                 Prepared using the Tamkin Foundation Computer Network
    
                                  MPC@CFA.HARVARD.EDU
                URL https://www.minorplanetcenter.net/    ISSN 1523-6714
    
                                       2011 CF66
    
    Observations:
         K11C66F* C2011 02 13.33976 10 15 39.34 +17 50 52.6          21.2 VrEC094G96
         K11C66F  C2011 02 13.34621 10 15 37.26 +17 51 13.1          21.0 VrEC094G96
         K11C66F  C2011 02 13.35260 10 15 35.20 +17 51 34.5          20.8 VrEC094G96
         K11C66F  C2011 02 13.35898 10 15 33.15 +17 51 54.9          20.9 VrEC094G96
         K11C66F  C2011 02 13.50928 10 14 45.70 +17 59 52.2          20.9 VrEC094G96
         K11C66F  C2011 02 13.51019 10 14 45.53 +17 59 55.7          21.1 VrEC094G96
         K11C66F  C2011 02 13.51064 10 14 45.32 +17 59 56.6          20.8 VrEC094G96
         K11C66F  C2011 02 13.51597 10 14 43.74 +18 00 13.4          20.6 VrEC094G96
         K11C66F  C2011 02 13.51644 10 14 43.65 +18 00 13.6          22.1 VrEC094G96
         K11C66F  C2011 02 13.51690 10 14 43.50 +18 00 14.6          21.6 VrEC094G96
         K11C66F  C2011 02 13.51737 10 14 43.39 +18 00 17.0          20.9 VrEC094G96
    
    Observer details:
    G96 Mt. Lemmon Survey.  Observer A. R. Gibbs.  Measurers J. D. Ahern,
        E. C. Beshore, A. Boattini, G. J. Garradd, A. R. Gibbs, A. D. Grauer,
        R. E. Hill, R. A. Kowalski, S. M. Larson, R. H. McNaught.  1.5-m reflector
        + CCD.
    
    Orbital elements:
    2011 CF66                                                Earth MOID = 0.0026 AU
    Epoch 2011 Feb. 8.0 TT = JDT 2455600.5                  MPC
    M 281.48929              (2000.0)            P               Q
    n   0.95687477     Peri.  274.21342     -0.27732892     +0.96075661
    a   1.0199197      Node   339.68270     -0.87455535     -0.25500115
    e   0.3137055      Incl.    0.98203     -0.39779593     -0.10918406
    P   1.03           H   27.4           G   0.15           U   9
    Residuals in seconds of arc
    110213 G96  0.0   0.3-    110213 G96  0.3-  0.4-    110213 G96  0.5+  1.3-
    110213 G96  0.1+  0.9-    110213 G96  1.1+  0.3+    110213 G96  0.3+  1.7-
    110213 G96  0.3+  0.4-    110213 G96  0.0   0.2-    110213 G96  0.7+  0.8-
    110213 G96  0.6+  0.8-    110213 G96  0.2-  0.0
    
    Ephemeris:
    2011 CF66                a,e,i = 1.02, 0.31, 1                   q = 0.7000
    Date    TT    R. A. (2000) Decl.     Delta      r     Elong.  Phase     V
    2011 01 15    10 26 10.2 +13 11 02   0.2258  1.1673   140.8    32.2    25.9
    ...
    2011 01 30    10 31 48.3 +13 29 46   0.1259  1.1001   154.7    22.5    24.2
    ...
    2011 02 07    10 28 34.5 +14 44 19   0.07729 1.0606   163.6    15.2    22.8
    ...
    2011 02 13    10 16 58.1 +17 33 55   0.04264 1.0294   171.2     8.4    21.2
    2011 02 14    10 12 42.5 +18 31 27   0.03700 1.0241   172.1     7.6    20.8
    2011 02 15    10 06 50.1 +19 48 37   0.03141 1.0187   172.3     7.5    20.5
    ...
    2011 02 21    01 58 52.3 +32 10 22   0.0074780.9861    68.5   111.1    21.0
    ...
    2011 03 01    23 04 58.6 -06 02 57   0.04932 0.9416     5.1   174.6
    ...
    2011 03 16    22 51 41.4 -09 22 16   0.1416  0.8581    14.3   163.3
    
    Timothy B. Spahr             (C) Copyright 2011 MPC           M.P.E.C. 2011-C94
    

    Read MPEC 2011-C93 Read MPEC 2011-C95


    MPEC number:

    Enter an MPEC number in one of the following forms:

    • 1997-B01 (the full form)
    • J97B01 (the packed version of the full form)
    • B01 (the abbreviated form)